[[{"header":{"parameterUnit":"m.s-1","parameterCategory":1,"la1":30.2991,"la2":30.254,"lo1":-89.0895,"lo2":-89.0444,"dy":0.0017,"dx":0.0017,"nx":28,"ny":28,"refTime":"2024-06-20T09:00:00:Z","depth":0,"parameterNumber":2,"parameterNumberName":"U-component_of_WINDS"},"data":[0,0,0,0,0,0,0,0,0,0,0,0,0,0,0,0,0,0,0,0,0,0,0,0,0,0,0,0,0,0,0,0,0,0,0,0,0,0,0,0,0,0,0,0,0,0,0,0,0,0,0,0,0,0,0,0,0,0,-8.7034,-8.7034,0,-8.7026,-8.7026,-8.7026,-8.6781,-8.6775,-8.6769,-8.6763,-8.6753,-8.6759,-8.6764,0,0,0,0,0,0,0,0,0,0,0,0,0,-8.6838,-8.6843,-8.7034,-8.7034,-8.7034,-8.7026,-8.7026,-8.7025,-8.6782,-8.6775,-8.6767,-8.676,-8.6752,-8.6758,-8.6765,0,0,0,0,0,0,0,0,0,0,0,0,0,-8.6886,-8.6845,-8.7034,-8.6912,-8.6901,-8.7026,-8.7026,-8.7025,-8.6784,-8.6774,-8.6765,-8.6756,-8.6749,-8.6758,-8.6766,-8.7007,0,0,-8.6792,-8.6795,0,0,0,0,0,0,0,0,-8.6884,-8.6894,-8.693,-8.692,-8.6908,-8.6895,-8.6953,-8.7019,-8.6786,-8.6828,-8.6762,-8.6752,-8.6808,-8.6811,-8.683,-8.7007,-8.7007,-8.6792,-8.6798,-8.6801,-8.6804,0,0,0,0,0,0,0,-8.6881,-8.6893,-8.7031,-8.6931,-8.6917,-8.6857,-8.6853,-8.6964,-8.6871,-8.6824,-8.6806,-8.6809,-8.68,-8.6823,-8.6828,-8.7006,-8.6792,-8.68,-8.6805,-8.6808,-8.7379,-8.7389,0,0,0,0,0,0,-8.6895,-8.6892,-8.7031,-8.703,-8.6872,-8.6868,-8.6864,-8.6909,-8.6869,-8.6854,-8.6817,-8.6797,-8.6813,-8.6819,-8.6827,-8.7104,-8.6801,-8.6809,-8.6814,-8.7369,-8.7381,-8.7392,0,0,0,0,0,0,-8.6891,-8.6909,-8.7031,-8.6956,-8.6967,-8.6881,-8.6934,-8.6914,-8.6935,-8.6864,-8.6846,-8.6857,-8.6806,-8.6815,-8.6964,-8.7101,-8.6813,-8.6821,-8.7357,-8.7373,-8.7387,-8.7664,0,0,0,0,0,0,-8.6887,-8.691,-8.7001,-8.696,-8.6972,-8.7169,-8.6942,-8.692,-8.6951,-8.6925,-8.6897,-8.6883,-8.6799,-8.6953,-8.6972,-8.7107,-8.6827,-8.7344,-8.7364,-8.7382,-8.7642,-8.7686,-8.7725,0,0,0,0,0,-8.6881,-8.7079,-8.7006,-8.7025,-8.7084,-8.7178,-8.7184,-8.7084,-8.6963,-8.7053,-8.7007,-8.6884,-8.7084,-8.697,-8.699,-8.713,-8.7335,-8.7358,-8.738,-8.7623,-8.7678,-8.7724,0,0,0,0,0,0,-8.7137,-8.7071,-8.699,-8.7182,-8.7187,-8.7136,-8.7246,-8.7145,-8.7185,-8.7159,-8.7033,-8.7029,-8.7197,-8.7178,-8.7053,-8.7361,-8.7188,-8.7216,-8.7365,-8.7417,-8.7457,-8.7456,-8.6834,0,0,0,0,0,-8.7217,-8.7299,-8.7236,-8.7411,-8.7418,-8.7334,-8.737,-8.7293,-8.7293,-8.7294,-8.7259,-8.7264,-8.7327,-8.7371,-8.7426,-8.764,-8.7629,-8.7746,-8.7787,-8.7822,-8.7846,-8.7955,-8.8005,-8.7467,-8.7466,-8.7466,0,0,-8.738,-8.7354,-8.7414,-8.7462,-8.7457,-8.7544,-8.7337,-8.7437,-8.75,-8.7309,-8.7446,-8.7422,-8.7419,-8.7601,-8.7679,-8.759,-8.7993,-8.7851,-8.7878,-8.7884,-8.7984,-8.8035,-8.808,-8.7482,-8.7479,-8.7477,0,0,-8.7721,-8.7712,-8.7855,-8.7855,-8.785,-8.7793,-8.7828,-8.7793,-8.7769,-8.7905,-8.7763,-8.7837,-8.795,-8.7953,-8.7969,-8.8315,-8.8202,-8.8337,-8.8551,-8.8659,-8.8701,-8.8738,-8.8858,-8.8903,-8.8362,-8.8363,-8.8363,0,-8.7925,-8.805,-8.7942,-8.8052,-8.8076,-8.7909,-8.8053,-8.8058,-8.8072,-8.8093,-8.7994,-8.8132,-8.8118,-8.8297,-8.8382,-8.8402,-8.8436,-8.8337,-8.8704,-8.874,-8.8773,-8.8886,-8.8932,-8.8379,-8.8377,-8.8375,-8.8374,0,-8.8299,-8.8388,-8.8505,-8.8522,-8.8561,-8.8688,-8.8598,-8.865,-8.8571,-8.8524,-8.8664,-8.8643,-8.869,-8.8727,-8.8651,-8.8896,-8.8841,-8.8727,-8.8549,-8.8842,-8.8946,-8.8989,-8.8402,-8.8396,-8.8391,-8.8387,0,0,-8.8797,-8.8755,-8.8799,-8.8804,-8.8788,-8.8855,-8.8975,-8.902,-8.9066,-8.9083,-8.9178,-8.9279,-8.9172,-8.9191,-8.9114,-8.921,-8.9481,-8.9082,-8.908,-8.9154,-8.9747,-8.9831,-8.9883,-8.9409,-8.9417,-8.9423,-8.9746,0,-8.9124,-8.9324,-8.9231,-8.9442,-8.9521,-8.9366,-8.9469,-8.9471,-8.9431,-8.9493,-8.9448,-8.952,-8.9376,-8.9386,-8.9474,-8.943,-8.9598,-8.9406,-8.9494,-8.9498,-8.9495,-8.9937,-9.0026,-9.0332,-8.9786,-8.9793,-8.9798,0,-8.9531,-8.9564,-8.9783,-8.9752,-8.9782,-8.9877,-8.991,-8.9973,-8.9971,-8.9936,-8.9959,-8.986,-8.9974,-8.9803,-8.9957,-8.9828,-8.986,-8.9844,-8.9853,-8.9854,-8.9663,-8.9946,-9.0427,-9.0472,-8.9862,-8.9857,-8.9852,0,-8.9868,-8.9968,-9.0111,-9.0121,-9.0089,-9.0159,-9.0149,-9.0139,-9.0172,-9.0203,-9.0223,-9.0268,-9.0292,-9.0328,-9.0244,-9.0127,-9.041,-9.0231,-9.0381,-9.0383,-9.0443,-9.044,-9.0932,-9.0472,-9.0471,-9.047,-9.047,0,-9.024,-9.0379,-9.0262,-9.0349,-9.05,-9.0393,-9.0546,-9.0519,-9.0511,-9.059,-9.046,-9.0537,-9.0423,-9.0489,-9.0424,-9.0561,-9.0574,-9.0546,-9.0527,-9.0555,-9.0559,-9.057,-9.0545,-9.0483,-9.048,-9.0478,-9.0475,0,-9.0639,-9.0567,-9.0712,-9.0671,-9.0664,-9.0777,-9.0741,-9.082,-9.0772,-9.0874,-9.0892,-9.0818,-9.0888,-9.0809,-9.0875,-9.0831,-9.1014,-9.0966,-9.1015,-9.0999,-9.1151,-9.1137,-9.1665,-9.1728,-9.1232,-9.1237,-9.1241,0,-9.0879,-9.0982,-9.0953,-9.0996,-9.0994,-9.1067,-9.11,-9.1,-9.104,-9.1047,-9.1126,-9.1186,-9.1228,-9.1349,-9.13,-9.1349,-9.1298,-9.148,-9.1304,-9.133,-9.1296,-9.1289,-9.1298,-9.1514,-9.152,-9.1525,-9.1529,0,-9.1311,-9.127,-9.1324,-9.1366,-9.141,-9.1438,-9.1456,-9.15,-9.1395,-9.1448,-9.1519,-9.1552,-9.1619,-9.1679,-9.1715,-9.1704,-9.16,-9.1586,-9.1622,-9.165,-9.1673,-9.1659,-9.1108,-9.1573,-9.1568,-9.1565,-9.1563,-9.1561,-9.1634,-9.1718,-9.171,-9.1774,-9.1778,-9.1798,-9.187,-9.1832,-9.189,-9.1935,-9.1874,-9.1962,-9.1958,-9.1995,-9.1996,-9.2063,-9.1985,-9.2039,-9.2052,-9.2065,-9.2087,-9.1667,-9.207,-9.2068,-9.2067,-9.2066,-9.2065,0,-9.2056,-9.2044,-9.2104,-9.2133,-9.2184,-9.2084,-9.2099,-9.2147,-9.2226,-9.2232,-9.2277,-9.2359,-9.2417,-9.2375,-9.2424,-9.2486,-9.2439,-9.2502,-9.2494,-9.2492,-9.2155,-9.2117,-9.2539,-9.2538,-9.2538,-9.2538,-9.2538,-9.2538,-9.2281,-9.2416,-9.2375,-9.2511,-9.2498,-9.2583,-9.26,-9.2618,-9.2621,-9.2718,-9.2766,-9.2739,-9.2725,-9.2772,-9.2822,-9.2807,-9.283,-9.291,-9.2878,-9.2563,-9.2516,-9.2472,-9.2435,-9.2916,-9.2917,-9.3209,-9.3211,-9.3214]},{"header":{"parameterUnit":"m.s-1","parameterCategory":1,"la1":30.2991,"la2":30.254,"lo1":-89.0895,"lo2":-89.0444,"dy":0.0017,"dx":0.0017,"nx":28,"ny":28,"refTime":"2024-06-20T09:00:00:Z","depth":0,"parameterNumber":3,"parameterNumberName":"V-component_of_WINDS"},"data":[0,0,0,0,0,0,0,0,0,0,0,0,0,0,0,0,0,0,0,0,0,0,0,0,0,0,0,0,0,0,0,0,0,0,0,0,0,0,0,0,0,0,0,0,0,0,0,0,0,0,0,0,0,0,0,0,0,0,0.9338,0.9339,0,0.9378,0.9378,0.9378,0.9379,0.9379,0.9378,0.9378,0.9416,0.9418,0.9419,0,0,0,0,0,0,0,0,0,0,0,0,0,0.9263,0.9264,0.9338,0.9339,0.9339,0.9378,0.9378,0.9379,0.9379,0.9379,0.9378,0.9378,0.9416,0.9417,0.9419,0,0,0,0,0,0,0,0,0,0,0,0,0,0.9298,0.9265,0.9338,0.9344,0.9345,0.9377,0.9378,0.9379,0.9379,0.9379,0.9378,0.9377,0.9415,0.9417,0.9419,0.9448,0,0,0.9426,0.9427,0,0,0,0,0,0,0,0,0.9296,0.9301,0.9343,0.9344,0.9345,0.9373,0.9366,0.9402,0.938,0.9366,0.9378,0.9377,0.9402,0.9405,0.9414,0.9449,0.9451,0.9426,0.9428,0.9429,0.9429,0,0,0,0,0,0,0,0.9294,0.9299,0.9354,0.9343,0.9345,0.9345,0.9349,0.9372,0.9388,0.9367,0.9368,0.9372,0.9403,0.9412,0.9415,0.9452,0.9426,0.9428,0.943,0.943,0.9514,0.9515,0,0,0,0,0,0,0.929,0.9297,0.9352,0.9355,0.9318,0.9347,0.9351,0.9365,0.9388,0.939,0.9373,0.9372,0.9409,0.9413,0.9417,0.9452,0.9429,0.9431,0.9432,0.9513,0.9514,0.9515,0,0,0,0,0,0,0.9289,0.9295,0.9351,0.9326,0.9333,0.9349,0.9363,0.9366,0.9375,0.9392,0.9394,0.938,0.9408,0.9413,0.944,0.9454,0.9432,0.9434,0.9512,0.9513,0.9515,0.9523,0,0,0,0,0,0,0.9287,0.9295,0.9305,0.9326,0.9335,0.9374,0.9364,0.9367,0.9379,0.9379,0.9399,0.9402,0.9408,0.9437,0.9443,0.9456,0.9435,0.9511,0.9513,0.9514,0.9522,0.9525,0.9527,0,0,0,0,0,0.9284,0.9305,0.9306,0.9313,0.9348,0.9375,0.9379,0.9387,0.938,0.9391,0.9402,0.9401,0.9451,0.944,0.9446,0.946,0.951,0.9512,0.9514,0.9521,0.9524,0.9527,0,0,0,0,0,0,0.9284,0.9308,0.9309,0.9338,0.9355,0.9375,0.9389,0.939,0.9408,0.9407,0.9415,0.942,0.9447,0.9457,0.9443,0.949,0.948,0.9483,0.9483,0.9486,0.9489,0.9486,0.9437,0,0,0,0,0,0.9288,0.9308,0.9327,0.9351,0.936,0.9373,0.9385,0.939,0.9407,0.9413,0.9426,0.9442,0.9462,0.9475,0.9494,0.9524,0.9528,0.9537,0.9539,0.9541,0.9544,0.9562,0.9566,0.9522,0.9522,0.9522,0,0,0.9295,0.9311,0.9322,0.9352,0.9365,0.9385,0.9379,0.94,0.9415,0.9416,0.9443,0.9453,0.9472,0.9501,0.9514,0.951,0.9558,0.9544,0.9545,0.9547,0.9564,0.9568,0.9572,0.9523,0.9523,0.9523,0,0,0.9319,0.9332,0.9354,0.9369,0.939,0.9399,0.9404,0.9425,0.9432,0.9459,0.9461,0.9479,0.9513,0.9527,0.9538,0.957,0.957,0.9576,0.9589,0.9607,0.961,0.9613,0.9625,0.963,0.9579,0.9579,0.9579,0,0.9325,0.9356,0.9365,0.9387,0.9401,0.9404,0.9427,0.944,0.9466,0.9475,0.9469,0.9513,0.9526,0.9559,0.9567,0.9576,0.9582,0.9573,0.9609,0.9612,0.9615,0.9627,0.9631,0.9579,0.9579,0.9579,0.9579,0,0.9363,0.9385,0.94,0.9426,0.9441,0.9463,0.9476,0.9491,0.9495,0.9505,0.9533,0.9549,0.9572,0.958,0.9584,0.9614,0.9611,0.9607,0.9597,0.962,0.9631,0.9636,0.958,0.958,0.958,0.958,0,0,0.9386,0.9419,0.9424,0.9437,0.9462,0.9479,0.9502,0.9525,0.9538,0.9556,0.9576,0.9605,0.9603,0.9616,0.9621,0.9636,0.9662,0.9631,0.9632,0.9637,0.9698,0.97,0.9705,0.9662,0.9663,0.9664,0.9696,0,0.9412,0.9454,0.9464,0.95,0.9521,0.9525,0.9546,0.9563,0.9573,0.9593,0.9604,0.9625,0.962,0.9628,0.9643,0.9655,0.9674,0.9653,0.9681,0.9681,0.9675,0.9711,0.9713,0.9742,0.97,0.9701,0.9702,0,0.9448,0.9469,0.9507,0.9531,0.954,0.9558,0.9582,0.96,0.962,0.9627,0.9643,0.9647,0.9672,0.9661,0.9696,0.9681,0.9693,0.9701,0.9703,0.9705,0.9693,0.9714,0.9752,0.9756,0.9708,0.9708,0.9707,0,0.9462,0.95,0.9528,0.9538,0.9567,0.9579,0.9592,0.9611,0.9626,0.9646,0.9656,0.9678,0.9691,0.9708,0.9719,0.971,0.9753,0.9743,0.9759,0.9759,0.9767,0.9766,0.9807,0.9775,0.9775,0.9775,0.9775,0,0.9491,0.9514,0.9535,0.9552,0.9578,0.959,0.9616,0.9628,0.9646,0.9666,0.9671,0.969,0.9703,0.9723,0.9732,0.9759,0.9765,0.9771,0.9773,0.977,0.977,0.9778,0.9776,0.9776,0.9776,0.9776,0.9775,0,0.951,0.9525,0.9556,0.9581,0.9588,0.9606,0.9628,0.9645,0.9656,0.9681,0.9688,0.9706,0.973,0.9743,0.9773,0.9779,0.981,0.9811,0.9804,0.9804,0.982,0.9818,0.9867,0.9875,0.9838,0.9838,0.9838,0,0.9527,0.9545,0.9573,0.9587,0.96,0.9623,0.9638,0.9651,0.9667,0.9693,0.9707,0.9732,0.9752,0.9791,0.9807,0.983,0.9832,0.9847,0.9835,0.9832,0.9832,0.9831,0.9833,0.9849,0.985,0.985,0.985,0,0.9556,0.9563,0.9585,0.961,0.9629,0.9649,0.9669,0.968,0.9696,0.9714,0.974,0.9756,0.9788,0.9813,0.9838,0.985,0.9853,0.9854,0.9859,0.9857,0.9852,0.9855,0.9809,0.9853,0.9852,0.9852,0.9852,0.9852,0.9575,0.9592,0.9615,0.964,0.9657,0.9676,0.9693,0.9708,0.973,0.9758,0.9764,0.9792,0.9813,0.9848,0.9861,0.9883,0.9879,0.9886,0.9888,0.989,0.9891,0.9849,0.9887,0.9887,0.9887,0.9887,0.9887,0,0.9605,0.962,0.9643,0.9672,0.9692,0.9694,0.9717,0.9733,0.9757,0.9778,0.9799,0.9829,0.9854,0.9872,0.9898,0.9912,0.9914,0.9918,0.9917,0.992,0.9892,0.9885,0.9916,0.9916,0.9916,0.9916,0.9916,0.9916,0.9622,0.9652,0.9662,0.97,0.9715,0.9743,0.9756,0.9774,0.979,0.9824,0.9846,0.9858,0.9878,0.9905,0.9928,0.9933,0.9942,0.9946,0.9951,0.9925,0.9922,0.9919,0.9912,0.9948,0.9948,0.9977,0.9977,0.9978]}]]